timestamp,wind_dir_avg,wind_spd_avg,wind_spd_max_dir,wind_spd_gust,battery_voltage,lat,long
2023-01-15 00:04:00+00:00,226.0,13.39,223.0,16.66,12.17,47.59359,-54.27349
2023-01-15 00:14:01+00:00,225.0,12.24,229.0,15.66,12.17,47.59359,-54.27349
2023-01-15 00:24:01+00:00,222.0,12.33,235.0,16.42,12.17,47.59359,-54.27349
2023-01-15 00:34:01+00:00,228.0,12.77,228.0,15.51,12.17,47.59359,-54.27349
2023-01-15 00:44:01+00:00,222.0,12.31,230.0,15.81,12.17,47.59359,-54.27349
2023-01-15 00:54:01+00:00,230.0,14.7,230.0,16.95,12.17,47.59359,-54.27349
2023-01-15 01:04:01+00:00,227.0,14.94,225.0,17.91,12.17,47.59359,-54.27349
2023-01-15 01:14:00+00:00,229.0,15.62,228.0,17.93,12.09,47.59359,-54.27349
2023-01-15 01:24:00+00:00,233.0,15.42,232.0,17.35,12.09,47.59359,-54.27349
2023-01-15 01:34:00+00:00,229.0,14.41,233.0,17.35,12.09,47.59359,-54.27349
2023-01-15 01:44:00+00:00,231.0,15.16,228.0,17.24,12.09,47.59359,-54.27349
2023-01-15 01:54:00+00:00,229.0,14.84,222.0,17.97,12.09,47.59359,-54.27349
2023-01-15 02:04:00+00:00,230.0,14.74,224.0,17.71,12.09,47.59359,-54.27349
2023-01-15 02:14:00+00:00,231.0,14.73,230.0,16.96,12.17,47.59359,-54.27349
2023-01-15 02:24:00+00:00,231.0,14.33,230.0,17.74,12.17,47.59359,-54.27349
2023-01-15 02:34:00+00:00,232.0,15.41,231.0,17.13,12.17,47.59359,-54.27349
2023-01-15 02:44:00+00:00,215.0,12.14,215.0,13.32,12.17,47.59359,-54.27349
2023-01-15 02:54:00+00:00,222.0,10.92,238.0,15.15,12.17,47.59359,-54.27349
2023-01-15 03:04:00+00:00,231.0,14.62,230.0,16.36,12.17,47.59359,-54.27349
2023-01-15 03:14:00+00:00,234.0,15.0,233.0,17.08,12.09,47.59359,-54.27349
2023-01-15 03:24:00+00:00,235.0,14.33,236.0,16.62,12.09,47.59359,-54.27349
2023-01-15 03:34:00+00:00,234.0,14.8,242.0,19.92,12.09,47.59359,-54.27349
2023-01-15 03:44:00+00:00,229.0,14.5,230.0,17.18,12.09,47.59359,-54.27349
2023-01-15 03:54:00+00:00,234.0,15.24,235.0,17.59,12.09,47.59359,-54.27349
2023-01-15 04:04:00+00:00,236.0,13.48,237.0,16.54,12.09,47.59359,-54.27349
2023-01-15 04:14:00+00:00,229.0,16.36,227.0,18.2,12.09,47.59359,-54.27349
2023-01-15 04:24:00+00:00,231.0,15.22,235.0,17.14,12.09,47.59359,-54.27349
2023-01-15 04:34:00+00:00,221.0,11.64,221.0,13.99,12.09,47.59359,-54.27349
2023-01-15 04:44:00+00:00,229.0,15.82,220.0,19.05,12.09,47.59359,-54.27349
2023-01-15 04:54:00+00:00,228.0,15.97,229.0,18.11,12.09,47.59359,-54.27349
2023-01-15 05:04:00+00:00,223.0,14.49,230.0,17.71,12.09,47.59359,-54.27349
2023-01-15 05:14:00+00:00,222.0,14.93,225.0,18.68,12.09,47.59359,-54.27349
2023-01-15 05:24:00+00:00,218.0,11.68,216.0,13.13,12.09,47.59359,-54.27349
2023-01-15 05:34:00+00:00,222.0,13.41,229.0,17.33,12.09,47.59359,-54.27349
2023-01-15 05:44:00+00:00,222.0,10.97,228.0,12.84,12.09,47.59359,-54.27349
2023-01-15 05:54:00+00:00,221.0,9.48,220.0,11.15,12.09,47.59359,-54.27349
2023-01-15 06:04:00+00:00,214.0,12.0,214.0,13.42,12.09,47.59359,-54.27349
2023-01-15 06:14:01+00:00,206.0,10.55,215.0,12.93,12.09,47.59359,-54.27349
2023-01-15 06:24:01+00:00,210.0,11.16,215.0,12.99,12.09,47.59359,-54.27349
2023-01-15 06:34:01+00:00,214.0,11.24,221.0,13.65,12.09,47.59359,-54.27349
2023-01-15 06:44:01+00:00,209.0,12.53,212.0,15.45,12.09,47.59359,-54.27349
2023-01-15 06:54:01+00:00,202.0,11.46,212.0,13.87,12.09,47.59359,-54.27349
2023-01-15 07:04:01+00:00,209.0,11.21,212.0,14.31,12.09,47.59359,-54.27349
2023-01-15 07:14:00+00:00,206.0,9.05,222.0,11.2,12.09,47.59359,-54.27349
2023-01-15 07:24:00+00:00,205.0,10.04,202.0,11.72,12.09,47.59359,-54.27349
2023-01-15 07:34:00+00:00,217.0,11.72,224.0,14.66,12.09,47.59359,-54.27349
2023-01-15 07:44:00+00:00,219.0,9.88,221.0,11.67,12.09,47.59359,-54.27349
2023-01-15 07:54:00+00:00,209.0,9.87,226.0,11.96,12.09,47.59359,-54.27349
2023-01-15 08:04:00+00:00,210.0,9.84,203.0,11.39,12.09,47.59359,-54.27349
2023-01-15 08:14:01+00:00,208.0,8.32,210.0,9.67,12.09,47.59359,-54.27349
2023-01-15 08:24:01+00:00,205.0,9.12,204.0,10.58,12.09,47.59359,-54.27349
2023-01-15 08:34:01+00:00,217.0,10.08,216.0,11.55,12.09,47.59359,-54.27349
2023-01-15 08:44:01+00:00,211.0,8.91,217.0,10.46,12.09,47.59359,-54.27349
2023-01-15 08:54:01+00:00,208.0,7.67,212.0,8.91,12.09,47.59359,-54.27349
2023-01-15 09:04:01+00:00,206.0,9.31,208.0,10.54,12.09,47.59359,-54.27349
2023-01-15 09:14:00+00:00,208.0,8.58,210.0,10.0,12.09,47.59359,-54.27349
2023-01-15 09:24:00+00:00,207.0,9.76,209.0,11.7,12.09,47.59359,-54.27349
2023-01-15 09:34:00+00:00,209.0,8.4,203.0,10.52,12.09,47.59359,-54.27349
2023-01-15 09:44:00+00:00,209.0,8.13,210.0,9.57,12.09,47.59359,-54.27349
2023-01-15 09:54:00+00:00,211.0,7.26,212.0,9.05,12.09,47.59359,-54.27349
2023-01-15 10:04:00+00:00,206.0,8.02,205.0,9.35,12.09,47.59359,-54.27349
2023-01-15 10:14:00+00:00,205.0,7.92,207.0,9.22,12.09,47.59359,-54.27349
2023-01-15 10:24:00+00:00,204.0,8.03,202.0,9.26,12.09,47.59359,-54.27349
2023-01-15 10:34:00+00:00,214.0,7.49,216.0,8.46,12.09,47.59359,-54.27349
2023-01-15 10:44:00+00:00,200.0,7.23,209.0,8.82,12.09,47.59359,-54.27349
2023-01-15 10:54:00+00:00,205.0,8.89,207.0,9.96,12.09,47.59359,-54.27349
2023-01-15 11:04:00+00:00,211.0,8.28,210.0,9.75,12.09,47.59359,-54.27349
2023-01-15 11:14:01+00:00,208.0,9.66,203.0,11.28,12.09,47.59359,-54.27349
2023-01-15 11:24:01+00:00,210.0,8.7,209.0,9.41,12.09,47.59359,-54.27349
2023-01-15 11:34:01+00:00,211.0,7.93,211.0,9.19,12.09,47.59359,-54.27349
2023-01-15 11:44:01+00:00,211.0,7.66,215.0,8.28,12.09,47.59359,-54.27349
2023-01-15 11:54:01+00:00,212.0,8.15,212.0,9.05,12.09,47.59359,-54.27349
2023-01-15 12:04:01+00:00,209.0,8.76,220.0,10.12,12.09,47.59359,-54.27349
2023-01-15 12:14:00+00:00,203.0,7.92,202.0,8.79,12.09,47.59359,-54.27349
2023-01-15 12:24:00+00:00,215.0,6.94,212.0,8.71,12.09,47.59359,-54.27349
2023-01-15 12:34:00+00:00,214.0,6.95,225.0,8.52,12.09,47.59359,-54.27349
2023-01-15 12:44:00+00:00,224.0,7.48,226.0,8.2,12.09,47.59359,-54.27349
2023-01-15 12:54:00+00:00,226.0,8.0,225.0,8.53,12.09,47.59359,-54.27349
2023-01-15 13:04:00+00:00,226.0,7.63,226.0,8.33,12.09,47.59359,-54.27349
2023-01-15 13:14:00+00:00,228.0,7.49,230.0,7.89,12.09,47.59359,-54.27349
2023-01-15 13:24:00+00:00,210.0,5.4,223.0,6.4,12.09,47.59359,-54.27349
2023-01-15 13:34:00+00:00,222.0,4.36,234.0,5.95,12.09,47.59359,-54.27349
2023-01-15 13:44:00+00:00,245.0,5.75,251.0,6.85,12.09,47.59359,-54.27349
2023-01-15 13:54:00+00:00,259.0,6.34,262.0,9.4,12.09,47.59359,-54.27349
2023-01-15 14:04:00+00:00,315.0,0.01,347.0,0.0,12.09,47.59359,-54.27349
2023-01-15 14:14:01+00:00,315.0,0.01,347.0,0.0,12.09,47.59359,-54.27349
2023-01-15 14:24:01+00:00,26.0,4.16,36.0,4.89,12.09,47.59359,-54.27349
2023-01-15 14:34:01+00:00,39.0,7.23,39.0,7.8,12.09,47.59359,-54.27349
2023-01-15 14:44:01+00:00,35.0,8.35,34.0,9.42,12.09,47.59359,-54.27349
2023-01-15 14:54:01+00:00,17.0,9.14,17.0,10.53,12.09,47.59359,-54.27349
2023-01-15 15:04:01+00:00,24.0,10.23,23.0,12.63,12.09,47.59359,-54.27349
2023-01-15 15:14:01+00:00,26.0,10.52,28.0,11.66,12.17,47.59359,-54.27349
2023-01-15 15:24:01+00:00,26.0,8.87,16.0,10.33,12.17,47.59359,-54.27349
2023-01-15 15:34:01+00:00,31.0,8.1,33.0,9.04,12.17,47.59359,-54.27349
2023-01-15 15:44:01+00:00,32.0,10.89,34.0,12.19,12.17,47.59359,-54.27349
2023-01-15 15:54:01+00:00,35.0,11.33,35.0,12.19,12.17,47.59359,-54.27349
2023-01-15 16:04:01+00:00,32.0,10.62,39.0,12.23,12.17,47.59359,-54.27349
2023-01-15 16:14:01+00:00,36.0,11.14,40.0,12.54,12.41,47.59359,-54.27349
2023-01-15 16:24:01+00:00,38.0,11.15,41.0,12.91,12.41,47.59359,-54.27349
2023-01-15 16:34:01+00:00,39.0,11.71,42.0,13.06,12.41,47.59359,-54.27349
2023-01-15 16:44:01+00:00,41.0,12.86,40.0,14.18,12.41,47.59359,-54.27349
2023-01-15 16:54:01+00:00,42.0,10.61,47.0,12.32,12.41,47.59359,-54.27349
2023-01-15 17:04:01+00:00,45.0,8.63,49.0,10.72,12.41,47.59359,-54.27349
2023-01-15 17:14:01+00:00,48.0,9.28,51.0,10.6,12.41,47.59359,-54.27349
2023-01-15 17:24:01+00:00,43.0,11.15,40.0,12.14,12.41,47.59359,-54.27349
2023-01-15 17:34:01+00:00,41.0,11.51,43.0,13.13,12.41,47.59359,-54.27349
2023-01-15 17:44:01+00:00,38.0,11.82,47.0,14.74,12.41,47.59359,-54.27349
2023-01-15 17:54:01+00:00,43.0,11.36,37.0,12.97,12.41,47.59359,-54.27349
2023-01-15 18:04:01+00:00,40.0,11.17,41.0,12.68,12.41,47.59359,-54.27349
2023-01-15 18:14:01+00:00,43.0,10.9,36.0,12.23,12.41,47.59359,-54.27349
2023-01-15 18:24:01+00:00,42.0,11.73,47.0,13.68,12.41,47.59359,-54.27349
2023-01-15 18:34:01+00:00,42.0,11.14,38.0,12.98,12.41,47.59359,-54.27349
2023-01-15 18:44:01+00:00,41.0,11.88,45.0,16.21,12.41,47.59359,-54.27349
2023-01-15 18:54:01+00:00,35.0,12.77,34.0,14.14,12.41,47.59359,-54.27349
2023-01-15 19:04:01+00:00,37.0,12.41,35.0,14.19,12.41,47.59359,-54.27349
2023-01-15 19:14:01+00:00,45.0,10.53,50.0,12.32,12.25,47.59359,-54.27349
2023-01-15 19:24:01+00:00,44.0,11.39,45.0,13.61,12.25,47.59359,-54.27349
2023-01-15 19:34:01+00:00,50.0,10.61,44.0,12.11,12.25,47.59359,-54.27349
2023-01-15 19:44:01+00:00,50.0,10.37,44.0,12.46,12.25,47.59359,-54.27349
2023-01-15 19:54:01+00:00,51.0,11.72,52.0,14.03,12.25,47.59359,-54.27349
2023-01-15 20:04:01+00:00,49.0,10.63,48.0,11.6,12.25,47.59359,-54.27349
2023-01-15 20:14:00+00:00,41.0,9.89,51.0,12.5,12.09,47.59359,-54.27349
2023-01-15 20:24:00+00:00,43.0,11.63,48.0,14.1,12.09,47.59359,-54.27349
2023-01-15 20:34:00+00:00,39.0,12.68,45.0,15.23,12.09,47.59359,-54.27349
2023-01-15 20:44:00+00:00,40.0,11.69,44.0,15.37,12.09,47.59359,-54.27349
2023-01-15 20:54:00+00:00,44.0,11.26,53.0,14.33,12.09,47.59359,-54.27349
2023-01-15 21:04:00+00:00,49.0,12.63,52.0,14.62,12.09,47.59359,-54.27349
2023-01-15 21:14:00+00:00,45.0,10.72,47.0,15.13,12.01,47.59359,-54.27349
2023-01-15 21:24:00+00:00,39.0,11.32,50.0,14.32,12.01,47.59359,-54.27349
2023-01-15 21:34:00+00:00,41.0,10.91,49.0,13.58,12.01,47.59359,-54.27349
2023-01-15 21:44:00+00:00,46.0,9.98,45.0,11.57,12.01,47.59359,-54.27349
2023-01-15 21:54:00+00:00,41.0,10.57,42.0,11.92,12.01,47.59359,-54.27349
2023-01-15 22:04:00+00:00,39.0,11.24,38.0,12.58,12.01,47.59359,-54.27349
2023-01-15 22:14:00+00:00,39.0,11.06,45.0,12.62,12.01,47.59359,-54.27349
2023-01-15 22:24:00+00:00,39.0,11.85,42.0,15.04,12.01,47.59359,-54.27349
2023-01-15 22:34:00+00:00,42.0,10.79,32.0,12.47,12.01,47.59359,-54.27349
2023-01-15 22:44:00+00:00,43.0,11.8,49.0,14.32,12.01,47.59359,-54.27349
2023-01-15 22:54:00+00:00,39.0,12.53,47.0,15.33,12.01,47.59359,-54.27349
2023-01-15 23:04:00+00:00,39.0,11.24,37.0,13.63,12.01,47.59359,-54.27349
2023-01-15 23:14:00+00:00,38.0,11.55,48.0,14.23,12.01,47.59359,-54.27349
2023-01-15 23:24:00+00:00,44.0,10.96,49.0,13.36,12.01,47.59359,-54.27349
2023-01-15 23:34:00+00:00,41.0,11.03,38.0,12.22,12.01,47.59359,-54.27349
2023-01-15 23:44:00+00:00,40.0,10.9,43.0,13.54,12.01,47.59359,-54.27349
2023-01-15 23:54:00+00:00,39.0,11.42,48.0,14.92,12.01,47.59359,-54.27349
